[[{"header":{"parameterUnit":"m.s-1","parameterCategory":1,"la1":30.2992,"la2":30.254,"lo1":-89.0895,"lo2":-89.0443,"dy":0.0025,"dx":0.0025,"nx":19,"ny":19,"refTime":"2026-03-07T09:00:00:Z","depth":0,"parameterNumber":2,"parameterNumberName":"U-component_of_WINDS"},"data":[0,0,0,-0.362,-0.362,-0.3622,-0.3622,-0.3629,-0.3629,0,0,0,0,0,0,0,0,0,0,0,-0.3621,-0.3621,-0.362,-0.362,-0.3622,-0.3622,-0.3629,-0.3629,0,0,0,0,0,0,0,0,0,0,0,-0.3621,-0.3621,-0.3621,-0.362,-0.3622,-0.3622,-0.3629,-0.3626,0,0,0,0,0,0,0,0,0,0,-0.3623,-0.3626,-0.3621,-0.3621,-0.362,-0.3622,-0.3622,-0.3626,-0.3627,-0.363,0,-0.3633,0,-0.3631,-0.363,-0.363,0,0,0,-0.3619,-0.3626,-0.3625,-0.3621,-0.362,-0.3622,-0.3621,-0.3626,-0.3627,-0.363,-0.3633,-0.3633,-0.3631,-0.363,-0.363,-0.3652,-0.3652,0,0,-0.3619,-0.3623,-0.3624,-0.3625,-0.3624,-0.3621,-0.3621,-0.3627,-0.363,-0.3633,-0.3633,-0.3632,-0.363,-0.363,-0.3652,-0.3652,0,0,0,-0.3619,-0.3623,-0.3621,-0.3625,-0.3625,-0.3621,-0.3621,-0.363,-0.3629,-0.3633,-0.3632,-0.363,-0.363,-0.3652,-0.3652,-0.3663,0,0,0,-0.3619,-0.3623,-0.3621,-0.3624,-0.3625,-0.3627,-0.3624,-0.3628,-0.3629,-0.3632,-0.363,-0.3631,-0.3652,-0.3652,-0.3663,-0.3668,0,0,0,-0.362,-0.3623,-0.3624,-0.3624,-0.3625,-0.3627,-0.3626,-0.3628,-0.3628,-0.363,-0.3631,-0.3651,-0.3652,-0.3662,-0.3667,-0.3675,0,0,0,-0.3623,-0.3635,-0.3624,-0.3637,-0.3625,-0.3634,-0.3626,-0.3633,-0.3636,-0.363,-0.3652,-0.3652,-0.3662,-0.3666,-0.3674,-0.3681,-0.3685,0,0,-0.3641,-0.3637,-0.3644,-0.3635,-0.3646,-0.3633,-0.3646,-0.3646,-0.3643,-0.3649,-0.365,-0.3663,-0.3667,-0.3674,-0.3704,-0.3707,0,0,0,-0.3651,-0.3656,-0.3658,-0.3661,-0.366,-0.366,-0.3657,-0.3657,-0.3662,-0.3647,-0.3668,-0.367,-0.3674,-0.3678,-0.368,-0.3683,-0.3654,-0.3654,-0.3654,-0.3682,-0.3676,-0.3687,-0.3681,-0.3684,-0.368,-0.3682,-0.3681,-0.3676,-0.3681,-0.3683,-0.3701,-0.3705,-0.3707,-0.371,-0.3686,-0.3686,-0.3687,-0.3687,-0.3706,-0.3712,-0.3703,-0.371,-0.3704,-0.3711,-0.3707,-0.3703,-0.3708,-0.3699,-0.3703,-0.3694,-0.371,-0.3713,-0.3687,-0.3687,-0.3687,-0.3687,-0.3687,-0.3725,-0.3727,-0.3726,-0.3729,-0.3732,-0.3726,-0.3731,-0.3726,-0.3721,-0.3724,-0.3725,-0.3725,-0.3724,-0.3725,-0.3725,-0.3725,-0.3725,-0.3725,-0.3725,-0.3746,-0.3744,-0.3748,-0.3748,-0.3748,-0.3749,-0.3744,-0.3745,-0.3745,-0.3741,-0.3741,-0.3734,-0.3713,-0.3707,-0.3726,-0.3726,-0.3726,-0.3726,-0.3726,-0.3773,-0.3765,-0.3772,-0.3773,-0.3771,-0.3774,-0.3767,-0.3769,-0.3769,-0.3771,-0.3764,-0.3749,-0.3746,-0.3744,-0.3739,-0.3765,-0.3765,-0.3765,-0.3765,-0.3789,-0.3786,-0.3791,-0.3792,-0.3793,-0.3787,-0.3795,-0.3791,-0.3787,-0.3787,-0.3782,-0.3776,-0.3774,-0.3771,-0.3769,-0.3765,-0.3797,-0.3797,-0.3797,-0.3805,-0.3802,-0.381,-0.3804,-0.3802,-0.3801,-0.3808,-0.381,-0.3803,-0.3798,-0.3786,-0.3785,-0.3774,-0.3771,-0.3766,-0.3762,-0.3754,0,0]},{"header":{"parameterUnit":"m.s-1","parameterCategory":1,"la1":30.2992,"la2":30.254,"lo1":-89.0895,"lo2":-89.0443,"dy":0.0025,"dx":0.0025,"nx":19,"ny":19,"refTime":"2026-03-07T09:00:00:Z","depth":0,"parameterNumber":3,"parameterNumberName":"V-component_of_WINDS"},"data":[0,0,0,2.6355,2.6356,2.6445,2.6445,2.6553,2.6554,0,0,0,0,0,0,0,0,0,0,0,2.6324,2.6324,2.6354,2.6356,2.6445,2.6445,2.6553,2.6554,0,0,0,0,0,0,0,0,0,0,0,2.6323,2.6324,2.6325,2.6357,2.6445,2.6445,2.6552,2.6488,0,0,0,0,0,0,0,0,0,0,2.6403,2.637,2.6324,2.6325,2.6357,2.6444,2.6445,2.6485,2.6492,2.651,0,2.6524,0,2.654,2.656,2.6561,0,0,0,2.636,2.6364,2.6392,2.6325,2.6358,2.6444,2.6406,2.6489,2.6497,2.6519,2.6525,2.653,2.6542,2.6561,2.6562,2.6652,2.6653,0,0,2.6355,2.6337,2.6386,2.6397,2.6381,2.6403,2.6409,2.6494,2.65,2.6526,2.6532,2.6544,2.6562,2.6563,2.6652,2.6652,0,0,0,2.6339,2.6334,2.636,2.6392,2.6408,2.6405,2.6412,2.6496,2.6506,2.6534,2.6545,2.6562,2.6564,2.6652,2.6652,2.6648,0,0,0,2.6336,2.6324,2.6357,2.6347,2.6407,2.6453,2.6412,2.65,2.651,2.6545,2.6562,2.6565,2.6652,2.6652,2.6648,2.665,0,0,0,2.632,2.6322,2.6333,2.6346,2.6383,2.6452,2.6467,2.6503,2.6517,2.6561,2.6565,2.6651,2.6652,2.6647,2.6649,2.667,0,0,0,2.6297,2.6328,2.6333,2.6372,2.6383,2.6448,2.6467,2.6516,2.6553,2.6563,2.6652,2.6652,2.6647,2.6649,2.6669,2.6685,2.669,0,0,2.6326,2.6331,2.6355,2.6362,2.6422,2.6436,2.6496,2.6547,2.6568,2.6623,2.6626,2.6648,2.6649,2.667,2.6718,2.6721,0,0,0,2.6358,2.6376,2.6396,2.643,2.6469,2.6504,2.6547,2.6566,2.6615,2.6592,2.6661,2.6662,2.6675,2.6684,2.6686,2.67,2.6655,2.6655,2.6655,2.6374,2.6399,2.6442,2.6478,2.6511,2.6556,2.6586,2.662,2.6634,2.665,2.6668,2.6694,2.6703,2.6705,2.6719,2.6677,2.6677,2.6677,2.6677,2.642,2.645,2.647,2.6519,2.6545,2.6587,2.6633,2.6642,2.6686,2.6682,2.6695,2.669,2.6708,2.6722,2.6677,2.6677,2.6677,2.6677,2.6677,2.6435,2.6453,2.6476,2.6529,2.6568,2.6603,2.6645,2.6667,2.6689,2.6701,2.6724,2.6724,2.6729,2.671,2.671,2.671,2.671,2.671,2.671,2.6441,2.6467,2.6499,2.6544,2.657,2.6607,2.6654,2.6681,2.6716,2.673,2.673,2.6745,2.6704,2.6695,2.6712,2.6712,2.6712,2.6711,2.6711,2.6482,2.6477,2.6526,2.6552,2.6608,2.6646,2.6674,2.6727,2.6753,2.6773,2.6786,2.6751,2.6758,2.6756,2.6748,2.6778,2.6778,2.6778,2.6778,2.6495,2.6501,2.6557,2.6598,2.664,2.6671,2.6729,2.6766,2.6804,2.6822,2.682,2.6812,2.6808,2.6817,2.6814,2.6807,2.6852,2.6852,2.6852,2.6523,2.6533,2.6577,2.6613,2.666,2.6699,2.6755,2.6802,2.6844,2.6856,2.6837,2.6834,2.682,2.6814,2.6826,2.682,2.6808,0,0]}]]